Home > Weather > Samara > Past weeks

Flag for Russia Past Weather in Samara, Russia — Yesterday and Last 2 Weeks

Now
57 °F

Clear.


Feels Like: 57 °F
Forecast: 64 / 81 °F
Wind: 3 mph from Northwest

Location: Samara

Current Time: Jul 2, 2016 at 4:30:49 AM

Latest Report: Jul 2, 2016 at 4:00 AM


Visibility: 10 mi

Pressure: 29.95 "Hg

Humidity: 82%

Dew Point: 52 °F

Location of SamaraLocation

Past Weather in Samara — Graph

°F

Samara Temperature Yesterday

Maximum temperature yesterday: 72 °F (at 3:00 PM)
Minimum temperature yesterday: 59 °F (at 12:30 AM)
Average temperature yesterday: 66 °F

High & Low Weather Summary for the Past Weeks

 TemperatureHumidityPressure
High88 °F (Jun 17, 2:00 PM)100% (Jun 21, 4:00 AM)30.21 "Hg (Jun 21, 4:00 AM)
Low50 °F (Jun 29, 3:00 AM)31% (Jun 30, 11:30 AM)29.62 "Hg (Jun 27, 5:00 PM)
Average71 °F64%29.99 "Hg
* Reported Jun 17 3:00 AM — Jul 2 3:30 AM, Samara, Weather by CustomWeather, © 2016

Note: Actual official high and low records may vary slightly from our data, if they occured in-between our weather recording intervals... More about our weather records

Advertising

Samara Weather History for the Previous 24 Hours

Scroll right to see more
 ConditionsComfort  
Time TempWeatherWind HumidityBarometerVisibility
3:30 AM
Sat, Jul 2
57 °FClear.3 mph82%29.95 "Hg10 mi
3:00 AM57 °FClear.6 mph82%29.98 "Hg10 mi
2:30 AM57 °FClear.6 mph82%29.98 "Hg10 mi
2:00 AM59 °FClear.6 mph77%29.95 "Hg10 mi
1:30 AM59 °FClear.3 mph77%29.98 "Hg10 mi
1:00 AM59 °FClear.3 mph77%29.98 "Hg10 mi
12:30 AM61 °FClear.3 mph77%29.98 "Hg10 mi
12:00 AM61 °FClear.3 mph77%29.98 "Hg10 mi
11:30 PM
Fri, Jul 1
61 °FClear.3 mph77%29.98 "Hg10 mi
11:00 PM63 °FClear.3 mph73%29.98 "Hg10 mi
10:30 PM64 °FClear.3 mph68%29.98 "Hg10 mi
10:00 PM64 °FSunny.3 mph68%29.98 "Hg10 mi
9:30 PM64 °FPassing clouds.6 mph68%29.98 "HgN/A
9:00 PM66 °FPassing clouds.6 mph64%29.98 "HgN/A
8:30 PM68 °FPassing clouds.8 mph60%29.95 "HgN/A
8:00 PM70 °FPassing clouds.10 mph57%29.95 "HgN/A
7:30 PM70 °FPassing clouds.13 mph57%29.95 "HgN/A
7:00 PM70 °FScattered clouds.13 mph57%29.95 "HgN/A
6:30 PM72 °FScattered clouds.13 mph53%29.95 "HgN/A
6:00 PM70 °FScattered clouds.10 mph57%29.95 "HgN/A
5:30 PM72 °FScattered clouds.10 mph53%29.95 "HgN/A
5:00 PM72 °FScattered clouds.8 mph53%29.95 "HgN/A
4:30 PM72 °FScattered clouds.8 mph53%29.95 "HgN/A
4:00 PM72 °FScattered clouds.10 mph53%29.95 "HgN/A
3:30 PM72 °FScattered clouds.3 mph53%29.95 "HgN/A
3:00 PM72 °FScattered clouds.6 mph53%29.95 "HgN/A
2:30 PM70 °FScattered clouds.6 mph57%29.95 "HgN/A
2:00 PM70 °FScattered clouds.6 mph60%29.98 "HgN/A
1:30 PM70 °FScattered clouds.8 mph60%29.98 "HgN/A
1:00 PM70 °FScattered clouds.8 mph60%29.98 "HgN/A
12:30 PM70 °FScattered clouds.6 mph60%29.98 "HgN/A
12:00 PM68 °FScattered clouds.6 mph64%29.98 "HgN/A
11:30 AM68 °FScattered clouds.6 mph64%29.98 "HgN/A
11:00 AM68 °FScattered clouds.6 mph60%29.98 "HgN/A
10:30 AM68 °FScattered clouds.6 mph64%29.98 "HgN/A
10:00 AM68 °FScattered clouds.3 mph64%29.98 "HgN/A
9:30 AM66 °FScattered clouds.1 mph68%29.98 "HgN/A
9:00 AM66 °FScattered clouds.3 mph68%29.98 "HgN/A
8:30 AM66 °FScattered clouds.No wind64%29.98 "HgN/A
8:00 AM64 °FScattered clouds.1 mph68%29.98 "HgN/A
7:30 AM63 °FScattered clouds.1 mph73%29.98 "HgN/A
7:00 AM61 °FScattered clouds.1 mph77%29.98 "HgN/A
6:30 AM61 °FScattered clouds.1 mph77%29.98 "HgN/A
6:00 AM61 °FScattered clouds.3 mph77%29.95 "HgN/A
5:30 AM61 °FScattered clouds.1 mph77%29.95 "HgN/A
5:00 AM61 °FPassing clouds.3 mph77%29.95 "HgN/A
4:30 AM61 °FPassing clouds.3 mph77%29.95 "HgN/A
4:00 AM61 °FPassing clouds.3 mph77%29.95 "HgN/A
Weather by CustomWeather, © 2016

See weather overviewHow to use our weather pages